{"data":{"norad_id":53293,"intl_designator":"2022-086BD","name":"STARLINK-4148","alt_names":[],"object_type":"PAYLOAD","status":"ACTIVE","operator":null,"country":"US","launch_date":"2022-07-24","launch_site_code":"AFETR","launch_vehicle":null,"mission":null,"orbit_class":"UNKNOWN","rcs_meters":null,"size_class":null,"mass_kg":null,"dimensions":null,"purposes":["comms"],"wikipedia_slug":null,"has_3d_model":false,"image_url":null,"decayed_at":null,"tle_current":{"epoch":"2026-09-20T00:37:32.078208Z","epoch_age_seconds":116232,"freshness":"FRESH","line1":"1 53293U 22086BD  26263.02606572  .00004441  00000+0  14252-3 0  9996","line2":"2 53293  53.1602   7.6341 0001209  60.9490 299.1634 15.34391847230859","mean_motion":15.34391847,"eccentricity":0.0001209,"inclination_deg":53.1602,"raan_deg":7.6341,"arg_perigee_deg":60.949,"mean_anomaly_deg":299.1634,"bstar":0.00014252,"rev_number":23085,"period_min":93.848256741943,"perigee_km":461.90041223382,"apogee_km":463.55453326333,"semimajor_km":6840.8644727486,"source":"CELESTRAK","updated_at":"2026-09-20T09:00:40.222272Z"}}}